www.pogodaiklimat.ru

Погода и климат >> Архив погоды >> Франция >> Paris Orly Airport


АРХИВ ПОГОДЫ в Paris Orly Airport

Время (UTC), дата Ветер
(напр.,м/с)
 
Видим.   Явления Облачность Т
(С)
Тd
(С)
f
(%)
Тe
(С)
Тes
(С)
Комфортность P
(гПа)
Po
(гПа)
Тmin
(С)
Tmax
(С)
R
(мм)
R24
(мм)
S
(см)
14 13.08 З 5 6000 м н/о +25.1 +12.7 46 +27 +27 жарко 1009.9 999.6
13 13.08 З 3 10 км {ливн. осадки, дождь} 6/6 1200 м
[Cu Sc]
+24.6 +14.4 53 +27 +32 жарко 1010.0 999.7 0.0
15 13.08 З 5 4600 м {ливн. осадки, дождь} 4/4 1500 м
[Cu Sc]
+25.8 +12.3 43 +27 +30 жарко 1009.9 999.6 0.0
16 13.08 З 5 3900 м 4/4 1500 м
[Cu Sc]
+24.8 +11.4 43 +26 +28 жарко 1010.1 999.8
17 13.08 З 3 7000 м 5/5 1230 м
[Cu Sc]
+23.8 +12.4 49 +26 +27 жарко 1010.3 1000.0
18 13.08 СЗ 3 30 км {ливн. осадки, дождь} 3/3 1000 м
[Cu Sc Ci fib]
+22.9 +12.5 52 +26 +26 жарко 1010.5 1000.1 +17.8 +25.8
20 13.08 СЗ 2 30 км 1/1 1500 м
[Sc]
+20.2 +13.2 64 +23 +23 комфорт 1012.4 1001.9
19 13.08 СЗ 2 30 км 1/1 1500 м
[Sc Ci fib]
+21.3 +13.5 61 +24 +24 комфорт 1011.3 1000.9
21 13.08 СЗ 2 30 км 5/5 1500 м
[Sc]
+19.6 +13.8 69 +22 +22 комфорт 1013.0 1002.5
22 13.08 СЗ 1 55 км 4/4 1230 м
[Sc]
+18.7 +13.3 71 +21 +21 комфорт 1013.6 1003.1
23 13.08 СЗ 1 30 км 1/1 1440 м
[Sc]
+17.8 +12.7 72 +19 +19 тепло 1014.0 1003.4
00 14.08 СЗ 1 30 км 1/1 1500 м
[Sc]
+15.4 +12.2 81 +16 +16 по сезону 1014.5 1003.8
02 14.08 З 2 30 км 9/9 750 м
[Sc]
+15.5 +13.7 89 +16 +16 тепло 1015.0 1004.3
01 14.08 З 1 50 км 1/1 1230 м
[Sc]
+14.2 +12.2 88 +14 +14 по сезону 1014.7 1004.0
03 14.08 ЮЗ 2 30 км 9/9 750 м
[Sc]
+16.2 +13.7 85 +17 +17 тепло 1015.4 1004.7
04 14.08 З 2 35 км 10/10 450 м
[]
+16.5 +13.8 84 +17 +17 тепло 1015.5 1004.9
05 14.08 З 2 29 км 9/9 450 м
[Cu Sc]
+16.8 +14.1 84 +17 +17 тепло 1016.0 1005.4
06 14.08 З 2 30 км 9/9 300 м
[Sc]
+17.0 +14.5 85 +17 +17 тепло 1016.7 1006.1 +14.2 +22.9
08 14.08 СЗ 2 25 км 9/9 420 м
[Sc]
+18.1 +14.8 81 +19 +20 по сезону 1017.9 1007.3
07 14.08 З 2 25 км 9/9 420 м
[Sc]
+17.5 +14.6 83 +18 +18 по сезону 1017.4 1006.8
09 14.08 З 2 12 км 9/9 540 м
[Sc]
+18.6 +15.1 80 +20 +21 по сезону 1018.3 1007.7
10 14.08 З 2 25 км 9/9 570 м
[Sc]
+20.6 +15.4 72 +24 +26 комфорт 1018.6 1008.1
11 14.08 З 2 27 км 9/9 800 м
[Cu Sc]
+21.4 +15.2 68 +25 +26 комфорт 1018.8 1008.3
12 14.08 З 2 22 км 8/8 1050 м
[Cu Sc]
+22.6 +14.2 59 +26 +29 жарко 1018.8 1008.3
14 14.08 З 2 30 км 9/9 1300 м
[Cu Sc]
+24.9 +14.4 52 +27 +29 жарко 1018.7 1008.3
13 14.08 З 2 17 км 9/9 1140 м
[Cu Sc]
+23.0 +14.6 59 +27 +28 душно 1018.8 1008.4
15 14.08 СЗ 2 30 км 4/4 1500 м
[Cu Sc]
+25.7 +12.9 45 +28 +33 жарко 1018.7 1008.3
16 14.08 СЗ 3 30 км 4/4 1500 м
[Cu hum]
+24.6 +12.2 46 +26 +29 жарко 1018.6 1008.2
17 14.08 СЗ 3 30 км 4/4 1500 м
[Sc diur, vesp]
+23.7 +12.0 48 +25 +27 комфорт 1018.7 1008.3
18 14.08 З 3 30 км 3/3 1500 м
[Sc]
+23.3 +12.3 50 +26 +26 жарко 1018.7 1008.3 +17.0 +25.9
20 14.08 СЗ 2 30 км ясно +20.0 +12.2 61 +23 +23 комфорт 1020.6 1010.0
19 14.08 СЗ 3 30 км 1/1 1500 м
[Sc]
+21.5 +12.6 57 +24 +24 комфорт 1019.4 1008.9
21 14.08 СЗ 1 55 км н/о +18.3 +11.8 66 +20 +20 по сезону 1020.9 1010.3
22 14.08 З 1 50 км 1/1 1500 м
[Sc]
+15.9 +11.5 75 +17 +17 тепло 1021.2 1010.5
23 14.08 ЮЗ 1 30 км 1/1 1080 м
[Sc]
+14.8 +11.9 83 +16 +16 по сезону 1021.6 1010.8
00 15.08 ЮЗ 1 30 км 3/3 1200 м
[Sc]
+14.4 +11.9 85 +15 +15 по сезону 1021.6 1010.8
02 15.08 З 1 30 км 8/8 1110 м
[Sc]
+13.9 +11.9 88 +14 +14 по сезону 1021.1 1010.3
01 15.08 З 1 30 км 6/6 1200 м
[Sc]
+14.5 +12.7 89 +16 +16 по сезону 1021.3 1010.5
03 15.08 ЮЗ 1 25 км 9/9 1080 м
[Sc]
+15.1 +13.6 91 +16 +16 по сезону 1021.2 1010.4
04 15.08 ЮЗ 1 25 км 3/3 1050 м
[Sc]
+15.1 +12.6 85 +16 +16 тепло 1021.1 1010.3
05 15.08 ЮЗ 1 25 км 1/1 800 м
[Sc]
+14.0 +12.2 89 +14 +14 по сезону 1021.2 1010.4
06 15.08 ЮЗ 1 25 км 3/3 1000 м
[Sc]
+16.0 +14.0 88 +17 +18 тепло 1021.6 1010.9 +13.8 +23.3
08 15.08 СЗ 2 25 км 8/8 660 м
[Cu Sc]
+20.3 +14.9 71 +24 +25 комфорт 1021.8 1011.2
07 15.08 З 1 25 км 3/3 900 м
[Cu Sc]
+18.9 +14.6 76 +21 +23 комфорт 1021.7 1011.1
09 15.08 СЗ 2 25 км 9/9 720 м
[Cu Sc]
+20.4 +14.1 67 +24 +25 комфорт 1022.1 1011.5
10 15.08 З 2 25 км 9/9 600 м
[Cu Sc]
+19.9 +14.7 72 +23 +24 комфорт 1022.2 1011.6
11 15.08 З 2 26 км 10/10 800 м
[]
+21.0 +14.2 65 +25 +25 комфорт 1021.9 1011.4
12 15.08 З 2 25 км 10/10 800 м
[]
+20.7 +14.3 67 +24 +24 комфорт 1021.8 1011.2
14 15.08 Ю 1 30 км н/о +22.9 +13.4 55 +26 +26 жарко 1020.9 1010.4
13 15.08 З 2 29 км 9/9 800 м
[Sc]
+22.7 +14.5 60 +26 +28 жарко 1021.4 1010.9
15 15.08 СЗ 2 35 км 1/1 1000 м
[Sc]
+23.6 +13.2 52 +26 +34 жарко 1020.4 1010.0
16 15.08 З 2 25 км ясно +25.3 +13.8 49 +28 +33 жарко 1019.8 1009.4
17 15.08 З 1 25 км ясно +24.7 +13.6 50 +27 +29 жарко 1019.3 1008.9
18 15.08 В 2 30 км ясно +23.7 +13.6 53 +26 +26 жарко 1019.0 1008.6 +16.0 +25.6
20 15.08 В 1 27 км 1/0
[]
+19.9 +13.6 67 +23 +23 комфорт 1019.3 1008.7
19 15.08 ЮВ 2 25 км ясно +21.8 +13.4 59 +25 +25 комфорт 1018.9 1008.4
21 15.08 штиль 0 25 км 1/0
[]
+18.1 +13.2 73 +18 +18 по сезону 1019.1 1008.5
22 15.08 штиль 0 25 км ясно +16.6 +12.5 77 +17 +17 тепло 1019.1 1008.4
23 15.08 З 1 21 км н/о +15.7 +13.0 84 +17 +17 по сезону 1019.1 1008.4
00 16.08 З 1 25 км ясно +15.3 +13.3 88 +17 +17 по сезону 1019.0 1008.3
02 16.08 З 1 15 км н/о +14.1 +12.8 92 +15 +15 по сезону 1018.5 1007.7
01 16.08 З 1 25 км ясно +14.8 +13.5 92 +16 +16 по сезону 1018.7 1008.0
03 16.08 СЗ 1 12 км ясно +14.1 +13.1 94 +15 +15 по сезону 1018.0 1007.2
04 16.08 Ю 1 11 км ясно +14.4 +13.8 96 +15 +15 тепло 1017.5 1006.8
05 16.08 Ю 1 25 км местами туман поземный 5/0
[]
+13.4 +12.5 94 +14 +14 по сезону 1017.6 1006.8
06 16.08 СВ 1 25 км 4/0
[]
+15.4 +14.9 97 +17 +17 тепло 1017.5 1006.8 +13.4 +23.7
08 16.08 Ю 1 25 км 6/0
[]
+20.5 +15.1 71 +24 +29 комфорт 1016.8 1006.3
07 16.08 Ю 1 25 км 5/0
[]
+18.0 +14.9 82 +20 +22 тепло 1017.0 1006.4
09 16.08 ЮЗ 2 19 км 6/0
[]
+23.4 +15.2 60 +28 +34 душно 1016.5 1006.1
10 16.08 Ю 2 30 км 6/0
[]
+25.5 +14.9 52 +28 +37 жарко 1016.0 1005.7
11 16.08 Ю 2 28 км 6/0
[]
+27.4 +14.8 46 +30 +41 жарко 1015.4 1005.1
12 16.08 Ю 2 30 км 6/0
[]
+27.7 +14.0 43 +30 +41 жарко 1014.6 1004.4
14 16.08 Ю 1 35 км 4/1 1500 м
[Cu hum Ci fib]
+30.2 +13.5 36 +32 +43 жарко 1013.4 1003.3
13 16.08 Ю 2 30 км 5/0
[]
+29.0 +13.6 39 +31 +42 жарко 1014.1 1003.9
15 16.08 Ю 2 35 км 3/1 1500 м
[Cu hum Ci fib]
+31.5 +12.8 32 +32 +40 жарко 1012.8 1002.7
16 16.08 ЮЗ 1 35 км 3/1 2000 м
[Cu hum Ci fib]
+30.9 +11.3 30 +31 +36 жарко 1012.4 1002.3
17 16.08 Ю 2 35 км 4/3 2000 м
[Cu hum Ci fib]
+30.7 +11.1 30 +31 +32 жарко 1012.0 1001.9
18 16.08 З 2 25 км 5/4 2000 м
[Cu Sc Ci fib]
+27.7 +12.1 38 +29 +29 жарко 1011.8 1001.6 +15.4 +31.6
20 16.08 С 3 25 км 9/5 2000 м
[Cu Sc Ci sp]
+22.5 +15.6 65 +26 +26 жарко 1014.1 1003.7
19 16.08 С 4 25 км 6/1 2000 м
[Cu Sc Ci sp]
+24.1 +16.1 61 +27 +27 жарко 1012.8 1002.5
21 16.08 С 4 35 км 9/9 2000 м
[Sc]
+21.9 +15.3 66 +25 +25 комфорт 1014.8 1004.4
22 16.08 С 4 25 км 9/9 700 м
[Cu Sc]
+20.4 +14.7 70 +23 +23 комфорт 1015.8 1005.3
23 16.08 С 3 25 км 9/1 1500 м
[Cb cap Ac cast Ci sp]
+19.9 +13.6 67 +22 +22 комфорт 1016.0 1005.5
00 17.08 С 2 25 км гроза без осадков 9/6 1500 м
[Cb cap Ac cast]
+18.8 +14.7 77 +20 +20 тепло 1016.0 1005.4 0.0
02 17.08 СЗ 2 13 км слабый дождь {ливн. осадки} 9/9 600 м
[]
+17.8 +15.1 84 +18 +18 тепло 1016.6 1006.0 0.2
01 17.08 С 2 40 км гроза без осадков 9/9 1500 м
[Cb cap]
+18.6 +13.9 74 +20 +20 тепло 1016.1 1005.5
03 17.08 С 2 25 км в посл. час ливневой дождь {гроза} 9/9 800 м
[Cb cap]
+17.6 +14.7 83 +18 +18 тепло 1016.8 1006.2 0.4
04 17.08 С 3 25 км {ливн. осадки, дождь} 9/9 480 м
[Sc]
+17.2 +13.9 81 +17 +17 тепло 1017.2 1006.6 0.0
05 17.08 С 2 25 км 9/9 800 м
[Sc]
+16.5 +12.1 75 +17 +17 тепло 1018.3 1007.6
06 17.08 С 2 25 км {гроза, ливн. осадки} 9/6 600 м
[Sc Ac trans]
+16.5 +12.6 78 +17 +17 тепло 1019.0 1008.3 +16.4 +27.6 0.4
08 17.08 С 3 25 км 6/6 630 м
[Cu Sc]
+18.9 +14.0 73 +20 +22 тепло 1019.8 1009.2
07 17.08 С 2 23 км 10/1 540 м
[]
+16.8 +12.9 78 +17 +18 по сезону 1019.3 1008.6
09 17.08 С 2 25 км 5/5 840 м
[Cu Sc]
+20.1 +12.6 62 +23 +27 комфорт 1020.5 1009.9
10 17.08 СЗ 2 25 км 5/5 1200 м
[Cu hum]
+21.5 +10.6 50 +23 +30 комфорт 1020.6 1010.1
11 17.08 С 2 25 км 4/4 1380 м
[Cu hum]
+22.6 +10.1 45 +24 +33 комфорт 1020.5 1010.0
12 17.08 СЗ 2 25 км 4/4 1500 м
[Cu hum]
+23.5 +9.1 40 +24 +33 комфорт 1020.6 1010.1
14 17.08 СЗ 2 25 км 3/3 1500 м
[Cu hum]
+24.3 +9.5 39 +25 +33 комфорт 1020.3 1009.9
13 17.08 СЗ 2 25 км 3/3 1500 м
[Cu hum]
+24.1 +8.9 38 +25 +34 комфорт 1020.5 1010.1
15 17.08 СЗ 3 25 км 3/3 1500 м
[Cu hum]
+24.7 +9.0 37 +25 +30 комфорт 1019.9 1009.5
16 17.08 С 2 25 км 3/3 1500 м
[Cu hum]
+24.4 +8.8 37 +25 +28 комфорт 1019.8 1009.4
17 17.08 С 2 30 км 1/1 1500 м
[Cu hum]
+24.0 +8.8 38 +25 +27 комфорт 1020.1 1009.7
18 17.08 СЗ 2 30 км 1/1 1500 м
[Sc diur, vesp]
+22.8 +8.1 39 +24 +24 комфорт 1020.5 1010.0 +16.5 +25.3
20 17.08 СЗ 3 30 км 1/1 1500 м
[Sc]
+20.8 +9.4 48 +23 +23 комфорт 1022.0 1011.4
19 17.08 СЗ 3 55 км н/о +21.4 +8.6 44 +23 +23 комфорт 1021.2 1010.7
21 17.08 С 2 30 км ясно +19.3 +10.8 58 +21 +21 комфорт 1022.8 1012.2
22 17.08 С 2 30 км ясно +17.2 +10.8 66 +18 +18 тепло 1023.4 1012.7
23 17.08 С 1 30 км ясно +15.9 +10.6 71 +17 +17 тепло 1023.7 1012.9
00 18.08 СЗ 1 25 км ясно +14.6 +10.2 75 +16 +16 по сезону 1024.0 1013.2
02 18.08 СЗ 1 40 км ясно +14.8 +10.2 74 +15 +15 по сезону 1023.9 1013.1
01 18.08 СЗ 1 25 км ясно +14.4 +10.0 75 +15 +15 по сезону 1024.0 1013.2
03 18.08 З 1 25 км ясно +13.0 +9.4 79 +13 +13 по сезону 1023.9 1013.0
04 18.08 З 1 30 км ясно +11.8 +9.9 88 +12 +12 по сезону 1024.1 1013.2
05 18.08 З 1 25 км 1/0
[]
+11.1 +9.5 90 +11 +11 прохладно 1024.3 1013.3
06 18.08 З 1 25 км 1/0
[]
+13.7 +12.1 90 +14 +15 по сезону 1024.2 1013.4 +11.0 +22.8
08 18.08 З 2 25 км 1/0
[]
+18.9 +11.7 63 +20 +26 тепло 1024.7 1014.0
07 18.08 З 1 35 км 1/0
[]
+16.8 +11.9 73 +18 +21 по сезону 1024.5 1013.8
09 18.08 З 2 25 км 1/1 900 м
[Cu hum]
+20.7 +11.3 55 +23 +32 комфорт 1024.8 1014.2
10 18.08 З 2 25 км 3/3 1080 м
[Cu hum]
+22.1 +11.5 51 +24 +33 комфорт 1024.5 1014.0
11 18.08 З 2 25 км 1/1 1200 м
[Cu hum]
+23.0 +10.8 46 +25 +38 комфорт 1024.2 1013.7
12 18.08 СЗ 2 25 км 1/1 1500 м
[Cu hum Ci fib]
+24.0 +9.9 41 +25 +38 комфорт 1023.9 1013.4
14 18.08 З 2 25 км 1/1 1500 м
[Cu hum Ci fib]
+25.6 +10.6 39 +27 +37 жарко 1022.8 1012.4
13 18.08 СЗ 2 25 км 1/1 1500 м
[Cu hum Ci fib]
+25.5 +10.5 39 +26 +39 жарко 1023.4 1013.0
15 18.08 ЮЗ 1 25 км 1/1 1500 м
[Cu hum Ci fib]
+26.3 +11.2 39 +27 +36 жарко 1022.4 1012.0
16 18.08 СЗ 2 30 км 1/1 1500 м
[Cu hum Ci fib]
+26.0 +11.7 41 +27 +32 жарко 1022.2 1011.8
17 18.08 СЗ 2 20 км 1/1 1500 м
[Cu hum Ci fib]
+24.9 +11.8 44 +26 +28 жарко 1022.1 1011.7
18 18.08 СЗ 2 30 км 1/1 1500 м
[Sc diur, vesp Ci fib]
+23.6 +12.3 49 +25 +26 комфорт 1022.3 1011.8 +13.7 +26.6
20 18.08 СЗ 2 30 км 1/0
[]
+21.2 +12.1 56 +23 +23 комфорт 1023.3 1012.7
19 18.08 СЗ 2 30 км 1/0
[]
+22.1 +12.4 54 +25 +25 комфорт 1022.7 1012.2
21 18.08 СЗ 2 30 км ясно +19.5 +12.0 62 +22 +22 комфорт 1023.8 1013.2
22 18.08 С 1 30 км ясно +17.9 +11.9 68 +19 +19 тепло 1024.3 1013.6
23 18.08 штиль 0 25 км ясно +17.5 +12.4 72 +18 +18 тепло 1024.0 1013.3
00 19.08 З 1 25 км ясно +16.8 +12.1 74 +18 +18 тепло 1023.9 1013.2
02 19.08 ЮЗ 1 20 км ясно +14.1 +12.3 89 +15 +15 по сезону 1023.9 1013.1
01 19.08 З 1 19 км ясно +15.2 +11.6 79 +16 +16 тепло 1023.9 1013.1
03 19.08 З 1 16 км ясно +14.0 +12.7 92 +14 +14 по сезону 1023.6 1012.8
04 19.08 З 1 20 км ясно +13.1 +11.8 92 +14 +14 тепло 1023.5 1012.6
05 19.08 З 1 20 км ясно +12.6 +11.5 93 +12 +12 по сезону 1023.7 1012.8
06 19.08 З 1 20 км 4/0
[Ci fib]
+14.3 +13.3 94 +15 +15 по сезону 1023.8 1013.0 +12.5 +23.6
08 19.08 З 2 18 км н/о +20.5 +13.2 63 +24 +24 комфорт 1023.8 1013.2 0.4
07 19.08 З 1 20 км 4/0
[]
+18.0 +13.9 77 +19 +22 по сезону 1023.8 1013.1
09 19.08 З 2 20 км 4/3 1000 м
[Sc Ci fib]
+22.0 +13.1 57 +25 +31 комфорт 1023.5 1013.0
10 19.08 З 2 17 км 3/1 1050 м
[Sc Ci fib]
+23.9 +13.7 53 +26 +37 жарко 1023.3 1012.8
11 19.08 ЮЗ 2 20 км 3/1 1170 м
[Sc Ci fib]
+25.3 +13.5 48 +27 +39 жарко 1022.7 1012.3
12 19.08 З 2 30 км 3/0
[]
+26.7 +14.1 46 +29 +42 жарко 1022.1 1011.8
14 19.08 З 2 21 км 4/0
[]
+28.4 +13.5 40 +30 +40 жарко 1021.1 1010.8
13 19.08 СЗ 2 30 км 3/0
[]
+27.6 +13.2 41 +29 +41 жарко 1021.8 1011.5
15 19.08 З 2 20 км 4/0
[]
+29.2 +13.8 39 +31 +38 жарко 1020.8 1010.5
16 19.08 З 2 30 км 4/0
[]
+29.1 +13.7 39 +31 +34 жарко 1020.4 1010.1
17 19.08 З 3 30 км 4/0
[]
+28.2 +13.3 40 +30 +31 жарко 1020.1 1009.8
18 19.08 СЗ 2 27 км н/о +27.0 +13.0 42 +29 +29 жарко 1020.0 1009.7 +14.4 +29.4
20 19.08 СЗ 2 30 км 3/0
[]
+25.2 +12.8 46 +27 +27 жарко 1020.6 1010.2
19 19.08 З 1 30 км н/о +25.5 +12.3 44 +27 +27 жарко 1020.2 1009.8
21 19.08 СЗ 2 27 км 3/0
[]
+23.8 +14.8 57 +27 +27 жарко 1021.0 1010.6
22 19.08 СЗ 2 40 км 3/0
[]
+22.1 +16.1 69 +26 +26 душно 1021.5 1011.0
23 19.08 СЗ 2 50 км 3/0
[]
+21.2 +16.4 74 +25 +25 комфорт 1021.6 1011.1
00 20.08 СЗ 1 30 км 3/0
[]
+19.9 +16.1 79 +24 +24 комфорт 1021.7 1011.1
02 20.08 З 1 30 км 3/1 1500 м
[Sc Ci fib]
+17.7 +15.1 85 +19 +19 тепло 1021.2 1010.5
01 20.08 З 1 30 км 3/1 600 м
[Sc Ci fib]
+19.4 +16.4 83 +22 +22 комфорт 1021.4 1010.8
03 20.08 З 2 40 км 10/10 480 м
[]
+18.3 +16.8 91 +20 +20 тепло 1020.8 1010.2
04 20.08 З 1 30 км 9/9 450 м
[Sc]
+19.5 +17.3 87 +23 +23 комфорт 1020.9 1010.3
05 20.08 З 2 30 км 9/8 570 м
[Sc]
+19.7 +17.1 85 +23 +23 комфорт 1021.0 1010.4
06 20.08 З 2 20 км 9/8 300 м
[Sc]
+19.8 +17.2 85 +23 +23 комфорт 1021.4 1010.8 +17.1 +27.0
08 20.08 З 2 18 км в посл. час морось 9/9 360 м
[Cu Sc]
+20.8 +17.6 82 +25 +26 комфорт 1021.9 1011.4 0.0
07 20.08 З 2 3400 м в посл. час морось 9/8 180 м
[Sc]
+19.8 +17.9 89 +23 +24 комфорт 1021.7 1011.1 0.0
09 20.08 СЗ 2 25 км {морось} 9/9 450 м
[Cu Sc]
+21.3 +17.3 78 +25 +26 комфорт 1022.1 1011.6 0.0
10 20.08 СЗ 2 25 км 9/9 570 м
[Cu Sc]
+22.5 +16.8 70 +27 +28 душно 1022.1 1011.6
11 20.08 СЗ 2 25 км 9/9 630 м
[Cu Sc]
+22.1 +17.0 73 +27 +28 душно 1022.1 1011.6

 

Местоположение метеостанции Paris Orly Airport (Франция): широта 48.72 долгота 2.38 высота над уровнем моря 90 м.

В архиве по умолчанию представлена погода в Paris Orly Airport за последнюю неделю. Архивные данные за месяц целиком и за предыдущие месяцы, начиная с января 2011 года, Вы можете получить, выбрав интересующий диапазон дат из раскрывающегося списка и нажав кнопку "Ввод!".


*Определитесь, кто Вы:
робот инопланетянин человек

Внимание! Время в таблицах - всемирное. Для получения местного времени необходимо прибавить поправку, которая в Paris Orly Airport равна 1 ч.

Смотрите также архив погоды в соседних городах и на ближайших метеорологических станциях:

Погода в Paris (Франция) (12 км)
Погода в Villacoublay (Франция) (14 км)
Погода в Melun (Франция) (25 км)
Погода в Le Bourget (Франция) (28 км)
Погода в Trappes (Франция) (28 км)
Погода в Charles De Gaulle Airport (Франция) (35 км)
Погода в Cormeilles (Франция) (48 км)
Погода в Creil (Франция) (60 км)
Погода в Chartres (Франция) (70 км)
Погода в Beauvais (Франция) (86 км)

Пояснения к столбцам:

Ветер - указаны скорость ветра в м/с - средняя за 10 мин, порывы в срок и между сроками (в фигурных скобках) и направление, откуда дует ветер: С - северный, СВ - северо-восточный, В - восточный, ЮВ - юго-восточный, Ю - южный, ЮЗ - юго-западный, З - западный, СЗ - северо-западный.
Видимость - горизонтальная дальность видимости в метрах или километрах. При видимости от 1 до 10 км при отсутствии осадков обычно наблюдается дымка, при ухудшении видимости до 1 км и менее - туман. В сухую погоду видимость может ухудшаться дымом, пылью или мглою.
Явления - указаны атмосферные явления, наблюдавшиеся в срок или в последний час перед сроком; фигурными скобками обозначены явления, наблюдавшиеся между сроками (за 1-3 часа до срока); квадратными скобками обозначены град или гололедные отложения с указанием их диаметра в мм.
Облачность - указаны через наклонную черту общая и нижняя облачность в баллах и высота нижней границы облаков в метрах; квадратными скобками обозначены формы облаков: Ci - перистые, Cs - перисто-слоистые, Cc - перисто-кучевые, Ac - высококучевые, As - высокослоистые, Sc - слоисто-кучевые, Ns - слоисто-дождевые, Cu - кучевые, Cb - кучево-дождевые. Подробнее классификацию облаков см. в Атласе облаков (PDF).
T - Температура воздуха - температура, измеренная на высоте 2 м над землей.
Td - Температура точки росы - температура, при понижении до которой содержащийся в воздухе водяной пар достигнет насыщения.
f - Относительная влажность воздуха - влажноcть воздуха, измеренная на высоте 2 м над землей.
Te - Эффективная температура - температура, которую ощущает одетый по сезону человек в тени. Характеристика душности погоды. При расчете учитывается влияние влажности воздуха и скорости ветра на теплоощущения человека.
Tes - Эффективная температура на солнце - температура, которую ощущает человек, с поправкой на солнечный нагрев. Характеристика знойности погоды. Зависит от высоты солнца над горизонтом, облачности и скорости ветра. Ночью, в пасмурную погоду, а также при ветре 12 м/с и более поправка равна нулю.
P - Атмосферное давление - приведенное к уровню моря атмосферное давление.
Po - Атмосферное давление - измеренное на уровне метеостанции атмосферное давление.
Tmin - Минимальная температура - минимум температуры воздуха на высоте 2 м над землей.
Tmax - Максимальная температура - максимум температуры воздуха на высоте 2 м над землей.
R - Количество осадков - Количество выпавших осадков за период времени, мм. При наведении курсора мыши на число - период времени, за который выпало указанное количество осадков.
R24 - Количество осадков - Количество выпавших осадков за 24 часа, мм.
S - Снежный покров - Высота снежного покрова, см. При наведении курсора мыши на число - состояние снежного покрова и степень покрытия местности в баллах.